Wind_Speed
19 19 17 14 12 11 12 12 12 11 9 8 6 6 6 6 6 6 6 6 5 6
24 23 21 17 15 13 13 13 12 11 11 10 8 7 7 7 7 7 6 7 7 8
26 24 22 19 16 14 14 15 14 13 12 11 10 8 7 8 8 7 8 8 8 9
27 25 24 20 17 17 14 15 14 14 13 13 12 9 9 9 9 9 8 9 10 10
29 27 25 22 20 19 16 14 14 14 14 14 13 11 11 11 10 9 9 10 11 12
32 29 26 24 21 20 17 15 15 15 14 14 14 13 13 12 10 10 11 12 13 13
36 31 27 25 24 19 19 17 16 15 16 16 15 15 13 12 12 12 14 14 14 14
35 31 28 28 24 21 22 19 17 17 17 17 17 16 13 13 13 14 15 15 15 13
35 33 31 29 27 24 24 22 20 18 18 18 18 16 15 13 14 16 16 16 14 14
37 35 32 31 28 27 26 22 21 20 20 18 18 17 16 15 15 16 16 17 16 16
36 34 32 32 31 28 26 25 22 22 21 19 18 18 17 17 17 18 17 17 16 17
35 35 33 33 33 29 27 27 25 23 21 21 18 19 18 19 20 19 18 17 16 17
34 34 33 33 33 30 29 27 25 24 23 21 20 20 20 20 21 21 18 18 17 18
33 33 32 32 32 29 28 27 28 27 25 24 22 22 22 22 22 21 20 19 17 17
Wind_Direction
228 232 236 249 263 275 278 284 292 296 288 290 297 301 304 314 324 328 326 330 331 331
228 232 240 247 253 262 270 279 284 288 283 282 284 284 293 295 301 308 311 312 315 320
229 231 236 239 251 260 271 277 282 282 279 279 281 286 287 288 294 295 303 304 308 312
232 235 238 240 248 254 261 270 277 276 272 274 277 281 285 287 286 289 295 300 303 306
236 238 240 241 246 252 259 270 273 271 271 274 277 281 283 283 289 288 292 302 302 302
235 240 242 241 242 249 252 264 268 273 273 274 275 276 278 283 284 282 298 306 303 300
237 243 245 243 243 249 254 260 264 270 272 273 273 274 276 277 278 278 292 301 302 296
237 244 244 242 244 248 254 258 261 268 271 269 272 273 274 274 274 279 290 296 298 288
237 243 244 242 240 245 251 252 257 265 268 269 272 273 274 272 275 283 290 295 295 285
239 243 246 243 240 242 246 250 256 262 265 267 267 271 272 271 275 280 285 291 292 289
244 246 248 242 242 245 245 249 255 259 262 263 266 270 270 273 278 281 284 290 290 292
247 247 249 245 244 245 245 248 252 257 260 262 265 268 267 270 276 278 284 285 291 292
250 254 253 249 246 248 248 251 253 255 259 262 262 268 266 269 275 276 279 282 288 291
256 258 256 250 248 249 251 253 254 256 259 260 264 269 267 268 271 273 276 280 286 288
Height
1577 1578 1579 1579 1580 1580 1580 1579 1579 1577 1577 1576 1575 1574 1573 1573 1573 1572 1571 1571 1570 1569
1575 1575 1576 1575 1576 1577 1576 1576 1575 1575 1574 1574 1573 1572 1572 1570 1570 1570 1569 1569 1568 1567
1571 1573 1574 1573 1574 1573 1575 1574 1573 1572 1572 1571 1571 1570 1569 1568 1567 1566 1566 1565 1565 1564
1568 1569 1570 1571 1572 1572 1571 1571 1570 1569 1568 1568 1568 1567 1566 1565 1564 1563 1563 1563 1561 1560
1563 1564 1566 1567 1568 1568 1567 1566 1566 1565 1564 1563 1564 1564 1563 1562 1562 1561 1561 1560 1558 1558
1556 1558 1560 1562 1563 1564 1564 1563 1562 1561 1561 1560 1559 1560 1559 1559 1558 1557 1557 1556 1555 1554
1549 1551 1553 1555 1557 1558 1559 1558 1558 1557 1557 1556 1555 1555 1555 1555 1554 1553 1553 1552 1550 1549
1544 1547 1548 1549 1551 1552 1552 1554 1554 1552 1552 1552 1551 1550 1551 1551 1550 1550 1549 1547 1546 1545
1538 1539 1540 1541 1543 1545 1546 1548 1548 1548 1547 1548 1547 1547 1546 1546 1545 1545 1544 1543 1541 1540
1530 1531 1532 1534 1535 1536 1538 1541 1542 1542 1542 1542 1542 1542 1541 1541 1541 1539 1539 1538 1537 1536
1524 1525 1526 1527 1528 1530 1531 1533 1535 1536 1536 1537 1537 1537 1537 1537 1536 1534 1534 1532 1531 1531
1516 1517 1519 1519 1520 1522 1523 1525 1527 1529 1530 1530 1532 1532 1532 1532 1531 1530 1529 1528 1526 1525
1511 1511 1511 1513 1514 1516 1517 1518 1521 1522 1523 1524 1526 1527 1527 1526 1526 1526 1524 1523 1521 1520
1505 1505 1505 1506 1508 1511 1513 1514 1515 1517 1517 1518 1519 1520 1521 1520 1519 1519 1519 1517 1516 1515